BREEZE-KM DEB, 41720

Orbit data source: Space-Track

BREEZE-KM DEB, 41720 is space debris in LEO originally from a launch on Tue, 31 Mar 2015 UTC launched from the Plesetsk Missile And Space Complex (PKMTR). Debris objects in space refer to the collection of defunct objects orbiting the Earth. Examples of debris include non-operational satellites, rocket bodies, and fragments generated from explosions, collisions, or faulty payload assembly.

Loading next visibility...
Identifier
41720, 2015-020H
Orbit
LEO
Country
Flag of CISCIS
Related business
Manufacturer
Khrunichev
Mission
Spacecraft
Bus & Motor
Unknown
Mass
Unknown
Launch date (UTC)
2015-03-31 (11 years ago)
Launch vehicle
Unknown
Launch site
Plesetsk Missile And Space Complex (PKMTR)
Object type
Payload
Rocket body
Debris
Shape & HBR
Unknown shape, 0.1 m
Radar Cross Section
Small (<0.1 m²)

Expand to show TLE details & history
Last TLE update: 3 days ago

TLE from 3 days ago
0 BREEZE-KM DEB
1 41720U 15020H   26034.29736100  .00000078  00000-0  22376-3 0  9993
2 41720  82.4838 244.9337 0229308 198.9713 160.2750 12.90998219501459
Epoch: 2026-02-03T07:08Z
TLE epoch observation values (Epoch: 2026-02-03T07:08:11.990Z)
Latitude
0.00006°
Longitude
4.40343°
Altitude
1,466.491 km
Speed
7.052 km/s
True Right ascension
16h 19m 44s
True Declination
0° 00' 00"
Sunlit
Object was in daylight at epoch
Visualization orbit readout
Latitude
Unknown
Longitude
Unknown
Altitude
Unknown
Speed
Unknown
Apparent Right ascension
Unknown
Apparent Declination
Unknown
Sunlit
N/A
Visualization observer readout
Local Sidereal Time
08:53:56
Azimuth
Unknown
Elevation
Unknown
Doppler factor
Unknown
Orbital elements
Apogee altitude
1,470.794 km
Perigee altitude
1,118.899 km
Semi-major axis
7,672.983 km
Eccentricity
0.02293
Inclination
82.4838°
RAAN
244.9337°
Arg. of periapsis
198.9713°
True anomaly
161.1385°
Mean anomaly
160.275°
Eccentric anomaly
160.70905°
Mean motion
3.22921 °/min
Orbital period
111.48 mins
BSTAR
0.00022376
Loading maneuver chart data...
Computing Atmospheric mass density...
Loading historical data...
Loading historical data...
Loading historical data...
Loading historical data...
Loading historical data...
Loading historical data...
Loading historical data...

Documentation

Showing up to 5 results
|